Date,TemperatureHighF,TemperatureAvgF,TemperatureLowF,DewpointHighF,DewpointAvgF,DewpointLowF,HumidityHigh,HumidityAvg,HumidityLow,PressureMaxIn,PressureMinIn,WindSpeedMaxMPH,WindSpeedAvgMPH,GustSpeedMaxMPH,PrecipitationSumIn
2013-1-1,50.4,47.9,43.9,49.6,40.5,28.8,97,78,47,30.10,29.91,6,1,7,0.18
2013-1-2,49.9,43.8,39.8,49.0,41.8,37.8,97,93,81,30.19,29.91,9,1,10,0.30
2013-1-3,45.2,39.3,31.8,38.6,36.2,30.5,96,89,72,30.26,30.15,5,0,5,0.00
2013-1-4,50.2,39.3,29.4,31.1,26.9,22.6,96,64,37,30.32,30.19,8,1,8,0.00
2013-1-5,49.4,39.1,29.2,32.0,26.4,22.3,79,61,40,30.40,30.26,6,0,6,0.00
2013-1-6,50.2,43.3,37.3,38.7,36.0,29.8,93,76,60,30.26,30.06,3,0,4,0.00
2013-1-7,52.1,40.3,33.3,35.0,32.5,30.0,89,75,49,30.44,30.17,12,1,13,0.00
2013-1-8,53.6,42.2,31.6,40.9,35.5,29.3,93,78,55,30.47,30.37,3,0,3,0.00
2013-1-9,67.5,52.0,38.0,52.4,45.1,36.2,96,79,54,30.45,30.33,5,0,5,0.00
2013-1-10,52.4,52.0,51.7,49.5,48.9,48.1,90,89,87,30.43,30.40,1,0,1,0.00
2013-1-11,52.2,49.5,42.4,51.7,46.9,32.4,98,91,57,30.44,30.13,4,1,7,0.20
2013-1-12,71.5,58.1,50.6,64.0,56.3,50.1,99,94,76,30.16,30.08,3,0,3,0.00
2013-1-13,75.3,63.3,54.9,63.6,59.0,54.5,100,87,65,30.13,30.03,7,1,7,0.00
2013-1-14,69.8,64.0,59.4,64.3,60.5,57.0,98,89,80,30.14,30.05,6,0,6,0.01
2013-1-15,62.4,46.0,43.9,61.5,45.0,43.1,98,96,92,30.24,30.05,14,2,14,0.01
2013-1-16,49.9,46.1,43.3,49.4,45.6,42.8,99,98,98,30.08,29.97,9,0,9,0.14
2013-1-17,51.0,46.4,33.2,50.7,45.7,32.0,99,98,94,30.14,29.90,20,2,24,0.89
2013-1-18,47.3,36.2,29.2,34.1,30.3,23.4,97,81,44,30.54,30.14,10,1,11,0.22
2013-1-19,53.7,39.8,27.5,36.3,29.6,25.3,94,69,39,30.52,30.16,6,0,7,0.01
2013-1-20,64.7,50.4,41.6,39.9,34.4,30.3,76,55,34,30.16,29.97,10,2,10,0.00
2013-1-21,60.2,46.7,33.7,34.0,29.7,18.3,87,54,30,30.08,29.85,7,1,12,0.00
2013-1-22,43.8,40.8,37.7,20.4,18.7,15.9,48,41,35,30.02,29.94,5,1,7,0.00
2013-1-23,40.0,31.2,19.7,18.8,14.5,4.1,71,50,31,30.40,30.07,5,0,9,0.00
2013-1-24,36.7,31.8,23.5,26.5,15.8,5.7,69,52,30,30.53,29.96,18,2,19,0.00
2013-1-25,28.0,24.3,20.1,26.0,14.5,5.5,93,68,43,30.55,30.12,6,0,6,0.00
2013-1-26,36.9,30.4,27.3,34.0,28.4,25.4,96,92,82,30.41,30.10,5,0,6,0.00
2013-1-27,40.4,30.6,23.6,30.0,26.4,22.4,96,85,63,30.62,30.41,8,1,8,0.02
2013-1-28,52.7,42.5,30.3,48.4,36.8,27.2,92,81,63,30.52,30.22,8,1,8,0.04
2013-1-29,72.6,59.2,48.8,58.8,52.9,46.9,93,81,58,30.23,30.06,6,2,6,0.00
2013-1-30,71.8,66.9,60.0,64.8,62.4,57.3,95,86,76,30.06,29.35,21,4,21,0.09
2013-1-31,67.5,47.4,34.4,64.8,32.7,20.2,93,59,33,30.00,29.40,16,3,19,0.21
2013-2-1,41.4,35.8,26.1,29.3,15.6,5.0,72,45,24,30.40,29.88,13,2,13,0.00
2013-2-2,44.7,32.9,19.5,36.2,13.7,7.8,80,47,29,30.41,30.03,10,1,10,0.00
2013-2-3,50.6,42.0,34.5,36.8,30.8,24.0,91,66,43,30.03,29.85,7,1,10,0.00
2013-2-4,49.1,38.8,28.2,28.5,24.2,20.3,81,57,35,30.15,29.98,7,1,7,0.00
2013-2-5,60.5,47.9,39.5,36.6,33.3,28.1,74,58,37,30.01,29.87,6,1,7,0.00
2013-2-6,64.7,48.4,36.4,36.3,31.7,26.6,87,56,27,30.29,29.96,10,1,10,0.00
2013-2-7,48.3,42.0,36.3,42.2,37.4,33.7,96,84,71,30.33,29.98,12,2,13,0.38
2013-2-8,55.5,46.0,39.5,46.6,40.4,29.9,96,82,53,30.03,29.80,15,2,17,0.66
2013-2-9,53.2,40.3,30.5,30.2,25.0,19.0,84,57,28,30.36,30.02,11,1,12,0.00
2013-2-10,52.2,40.9,29.7,40.5,23.9,19.0,82,53,30,30.49,30.21,7,1,8,0.01
2013-2-11,63.1,55.8,45.1,60.0,53.3,39.8,98,91,81,30.22,29.90,8,2,9,0.04
2013-2-12,64.8,53.9,46.5,54.9,37.3,28.0,91,57,28,30.07,29.89,8,1,9,0.00
2013-2-13,50.2,46.2,42.8,46.6,43.3,34.6,97,90,56,29.94,29.61,8,1,8,0.23
2013-2-14,42.7,39.5,36.8,36.8,35.0,33.6,88,84,79,29.90,29.82,4,0,4,0.00
2013-2-15,63.6,46.4,31.9,40.2,34.9,30.6,96,66,35,30.09,29.92,6,0,7,0.00
2013-2-16,46.2,36.8,30.7,36.5,32.9,29.0,95,86,67,29.97,29.82,7,1,10,0.22
2013-2-17,36.7,30.0,24.5,29.0,17.1,10.0,94,61,34,30.29,29.91,12,1,13,0.00
2013-2-18,51.4,35.6,19.8,27.2,19.1,15.2,86,55,27,30.43,30.27,8,1,9,0.08
2013-2-19,53.7,44.5,36.7,50.5,39.4,26.6,96,82,60,30.27,29.85,14,2,14,0.08
2013-2-20,52.7,42.0,32.6,39.7,21.9,13.1,95,48,22,30.14,29.95,9,1,9,0.00
2013-2-21,56.3,40.4,26.9,23.8,20.9,16.8,80,48,25,30.27,30.12,10,1,10,0.00
2013-2-22,41.7,35.6,31.6,35.2,31.0,21.7,96,85,46,30.36,30.14,7,1,10,0.29
2013-2-23,43.7,40.0,35.7,42.9,39.0,34.7,97,96,95,30.14,29.80,7,1,8,0.92
2013-2-24,64.7,50.1,41.1,46.0,39.1,29.5,98,70,37,30.03,29.78,9,1,10,0.09
2013-2-25,42.7,37.6,32.8,31.7,25.0,21.4,73,60,49,30.23,30.03,13,2,15,0.00
2013-2-26,57.4,45.1,35.6,56.7,41.9,26.3,99,89,68,30.15,29.55,14,2,19,1.10
2013-2-27,60.9,49.9,43.3,46.7,41.4,37.5,97,75,44,29.78,29.61,6,2,7,0.00
2013-2-28,48.6,43.0,34.7,40.1,33.3,28.0,94,70,46,29.84,29.68,7,1,8,0.00
2013-3-1,49.9,40.9,32.6,32.4,29.7,27.5,84,65,46,29.91,29.83,9,1,11,0.00
2013-3-2,51.7,39.2,29.9,29.9,26.9,20.8,86,63,40,29.92,29.80,11,1,11,0.00
2013-3-3,49.9,36.6,29.2,24.6,21.2,17.3,71,54,36,29.97,29.83,8,1,9,0.00
2013-3-4,50.1,37.1,27.4,23.5,17.7,14.7,64,47,26,30.11,29.97,9,1,10,0.00
2013-3-5,50.6,42.6,35.4,43.8,34.6,19.8,96,75,44,30.09,29.57,8,1,9,0.34
2013-3-6,45.8,41.5,36.5,44.1,34.5,28.4,98,77,57,30.01,29.49,14,2,17,0.00
2013-3-7,50.5,41.9,33.4,33.2,30.5,27.2,85,65,48,30.22,30.01,11,1,12,0.00
2013-3-8,55.7,43.5,31.9,29.8,27.4,25.2,79,55,33,30.27,30.14,16,1,16,0.00
2013-3-9,63.0,46.8,33.2,33.6,30.0,26.8,78,55,29,30.33,30.22,10,1,13,0.00
2013-3-10,65.9,51.1,35.5,33.5,28.4,21.1,80,47,19,30.32,30.20,7,1,8,0.00
2013-3-11,70.4,56.0,41.9,53.8,44.8,28.6,90,67,42,30.24,29.94,11,2,13,0.00
2013-3-12,72.3,61.7,49.4,63.5,54.9,36.9,97,80,52,29.94,29.73,13,2,14,0.37
2013-3-13,57.6,47.1,35.5,37.2,29.4,21.0,87,53,30,30.11,29.92,13,1,14,0.00
2013-3-14,38.4,35.8,33.8,22.0,20.1,18.3,54,53,51,30.16,30.11,9,1,9,0.00
2013-3-15,61.9,51.7,29.2,36.8,32.3,21.3,77,48,34,30.17,29.89,5,1,10,0.00
2013-3-16,77.8,63.9,52.8,51.9,45.6,36.1,69,52,37,29.89,29.62,10,2,13,0.00
2013-3-17,61.5,51.4,39.9,52.8,45.5,37.4,96,80,69,30.17,29.80,14,3,16,0.00
2013-3-18,42.7,39.9,37.3,41.6,38.8,36.0,97,96,93,30.20,29.86,11,2,11,0.29
2013-3-19,68.3,52.0,40.4,47.4,34.9,11.4,98,63,20,30.00,29.81,7,1,9,0.00
2013-3-20,56.2,46.5,37.5,27.2,18.8,12.8,59,34,21,30.11,29.77,7,1,7,0.00
2013-3-21,44.7,43.2,41.6,31.7,27.5,25.0,61,54,50,29.77,29.72,3,0,3,0.00
2013-3-22,51.6,38.8,25.9,24.5,17.4,13.3,65,44,22,30.08,29.96,2,1,10,0.00
2013-3-23,55.6,45.7,38.4,34.0,27.3,21.9,72,50,32,30.05,29.90,5,0,6,0.00
2013-3-24,42.1,38.6,36.1,37.6,34.6,30.4,95,86,67,29.93,29.56,16,2,17,0.67
2013-3-25,48.6,40.7,35.3,37.5,31.2,23.9,95,72,42,29.80,29.55,11,1,12,0.00
2013-3-26,50.1,42.8,34.4,31.1,28.1,24.5,73,56,44,30.09,29.80,8,1,9,0.00
2013-3-27,55.3,42.9,34.7,28.1,25.9,22.1,75,53,32,30.21,30.09,15,1,15,0.00
2013-3-28,59.2,44.8,32.4,28.5,26.3,23.5,75,51,29,30.28,30.13,11,1,13,0.00
2013-3-29,62.7,46.5,32.6,31.9,28.3,25.7,79,52,27,30.33,30.17,11,1,12,0.00
2013-3-30,70.2,53.6,41.4,44.7,34.9,27.4,71,52,27,30.24,30.07,7,1,7,0.00
2013-3-31,67.9,56.6,47.8,57.6,51.2,42.9,97,83,68,30.09,29.78,9,1,9,0.43
2013-4-1,75.9,61.3,54.0,55.3,48.1,37.6,98,68,33,29.95,29.77,13,1,13,0.00
2013-4-2,62.6,50.1,37.7,38.1,29.4,24.4,77,47,25,30.15,29.95,12,1,15,0.00
2013-4-3,63.2,49.9,40.9,30.9,23.9,17.8,58,37,21,30.28,30.13,11,1,12,0.00
2013-4-4,48.4,42.5,39.2,39.5,32.5,23.4,95,70,42,30.36,29.91,16,2,17,0.50
2013-4-5,62.9,48.6,39.3,49.0,43.5,38.0,96,84,55,30.00,29.85,12,1,12,0.00
2013-4-6,66.6,53.5,43.9,44.1,33.4,25.2,90,50,28,30.27,30.00,14,2,14,0.00
2013-4-7,73.7,55.6,36.2,47.4,40.1,33.0,89,59,36,30.28,30.09,9,1,9,0.00
2013-4-8,80.3,67.3,55.5,59.0,54.3,47.4,92,65,42,30.16,30.02,8,2,10,0.00
2013-4-9,87.2,72.6,60.6,61.6,58.5,55.9,93,64,38,30.15,30.01,7,1,8,0.00
2013-4-10,88.9,75.3,64.0,63.9,60.8,58.2,87,63,39,30.07,29.91,8,2,8,0.00
2013-4-11,81.9,72.6,63.5,67.4,62.0,58.4,91,70,49,29.97,29.77,9,2,10,0.00
2013-4-12,80.6,72.2,64.9,70.7,64.7,49.2,96,79,54,29.79,29.57,12,2,12,0.55
2013-4-13,78.3,64.3,52.0,51.0,43.4,38.9,68,48,28,29.98,29.73,7,1,7,0.00
2013-4-14,84.0,66.1,48.2,52.4,45.3,38.1,91,53,22,30.09,29.98,6,1,6,0.00
2013-4-15,72.8,65.3,59.4,59.4,56.5,52.4,89,74,58,30.19,30.00,9,1,11,0.01
2013-4-16,78.8,64.6,56.9,63.2,58.6,56.0,98,83,54,30.30,30.18,7,0,8,0.00
2013-4-17,86.5,70.7,57.8,66.6,62.3,56.9,98,77,52,30.21,30.07,4,1,6,0.00
2013-4-18,80.0,70.3,60.8,63.4,60.9,58.3,94,74,50,30.18,30.02,9,1,9,0.00
2013-4-19,82.3,71.5,65.1,69.7,66.1,61.5,98,84,62,30.03,29.69,13,2,13,0.05
2013-4-20,65.4,55.9,48.0,64.8,42.9,33.3,98,65,33,30.26,29.79,11,1,11,0.00
2013-4-21,61.4,51.1,42.4,43.3,40.4,37.6,94,69,48,30.48,30.26,13,2,17,0.00
2013-4-22,62.2,49.0,37.6,46.1,39.7,33.3,88,71,47,30.49,30.26,15,3,17,0.00
2013-4-23,68.2,54.6,46.9,52.0,47.6,44.4,92,78,51,30.26,30.11,12,1,12,0.00
2013-4-24,79.1,63.8,49.0,58.7,53.9,47.6,97,73,46,30.14,29.94,8,1,9,0.00
2013-4-25,74.3,62.2,52.8,57.6,48.5,40.1,87,62,41,30.26,29.99,10,1,11,0.00
2013-4-26,77.0,60.3,48.7,51.3,43.7,35.3,97,61,25,30.42,30.26,11,1,12,0.00
2013-4-27,76.9,63.3,52.4,49.2,45.9,40.7,77,55,33,30.37,30.24,4,0,5,0.00
2013-4-28,63.5,58.5,54.1,56.4,50.5,43.2,96,76,58,30.25,30.09,2,0,3,0.00
2013-4-29,71.7,62.9,54.1,64.3,60.6,53.0,99,92,75,30.10,29.95,2,0,3,0.00
2013-4-30,66.3,60.6,56.5,61.1,58.3,55.0,99,92,78,30.17,29.99,9,1,11,0.00
2013-5-1,60.7,58.4,56.9,58.7,56.5,55.2,97,93,89,30.31,30.14,12,2,15,0.00
2013-5-2,62.0,57.8,50.1,57.7,54.9,48.4,96,90,83,30.33,30.21,9,1,12,0.00
2013-5-3,70.5,57.7,49.4,56.3,49.6,44.0,95,76,50,30.26,30.15,10,2,13,0.00
2013-5-4,64.0,55.7,48.9,54.1,49.7,46.0,91,80,65,30.18,30.05,14,2,16,0.00
2013-5-5,59.6,55.6,49.2,56.5,52.6,46.3,97,90,85,30.08,29.96,10,2,12,0.00
2013-5-6,66.4,60.4,53.9,64.9,59.6,53.3,99,97,93,29.96,29.81,9,1,12,0.00
2013-5-7,73.0,59.3,51.7,61.0,53.9,49.6,100,84,49,29.94,29.84,4,0,6,0.02
2013-5-8,74.4,62.3,52.3,61.1,57.2,51.3,98,85,58,30.00,29.91,4,0,6,0.15
2013-5-9,85.1,67.8,54.4,62.9,58.7,53.8,99,76,41,30.04,29.96,4,0,6,0.00
2013-5-10,88.9,74.5,57.1,65.2,61.5,55.2,96,67,40,30.04,29.90,7,1,7,0.00
2013-5-11,85.1,75.6,66.7,68.1,63.7,59.6,97,68,49,29.90,29.75,6,1,9,0.26
2013-5-12,77.8,66.3,55.0,65.2,52.9,37.5,97,66,37,30.00,29.75,11,1,12,0.02
2013-5-13,69.3,57.0,45.9,43.5,39.2,32.9,82,54,31,30.17,30.00,10,1,11,0.00
2013-5-14,75.5,57.8,41.6,47.7,40.9,34.3,93,58,28,30.25,30.06,6,0,6,0.00
2013-5-15,91.3,73.6,55.8,64.3,57.5,44.5,78,58,40,30.07,29.87,5,1,5,0.00
2013-5-16,87.0,76.5,67.2,64.7,62.3,58.9,83,63,43,29.95,29.86,6,1,7,0.00
2013-5-17,93.3,76.4,62.8,66.1,63.3,60.6,95,67,38,30.06,29.95,6,0,6,0.00
2013-5-18,81.0,70.7,64.2,70.8,66.4,62.4,97,87,65,30.13,30.04,7,0,7,0.15
2013-5-19,76.8,69.4,65.2,72.2,67.3,64.3,99,93,75,30.13,30.04,7,0,7,0.72
2013-5-20,76.3,70.0,67.1,72.0,69.1,66.5,99,97,83,30.09,30.01,4,0,5,0.64
2013-5-21,87.3,76.3,68.4,74.8,70.5,67.8,99,83,62,30.03,29.92,5,1,5,0.00
2013-5-22,86.0,74.6,69.1,71.4,68.9,67.0,96,84,59,30.00,29.88,8,1,8,0.07
2013-5-23,87.1,73.3,68.4,71.4,68.7,65.7,98,87,57,29.94,29.80,6,0,6,0.10
2013-5-24,74.2,64.7,53.1,67.9,54.6,39.3,99,73,40,30.16,29.78,15,1,15,0.07
2013-5-25,77.5,59.2,42.8,49.4,42.3,35.6,92,58,23,30.26,30.11,7,1,9,0.00
2013-5-26,78.2,62.0,49.2,52.5,46.2,41.0,85,59,31,30.27,30.15,5,0,7,0.00
2013-5-27,84.5,67.2,51.4,57.1,53.0,49.6,96,65,36,30.27,30.14,4,0,4,0.00
2013-5-28,86.8,73.6,60.2,69.1,62.9,54.9,93,71,53,30.24,30.12,6,1,7,0.00
2013-5-29,89.2,76.1,63.1,67.8,64.6,61.2,96,70,47,30.22,30.13,6,1,7,0.00
2013-5-30,91.7,77.1,64.3,69.1,65.2,62.1,96,70,38,30.24,30.14,1,0,5,0.00
2013-5-31,91.2,78.6,67.5,71.0,67.8,65.8,96,72,44,30.19,30.07,1,1,5,0.00
2013-6-1,92.0,78.5,68.1,71.0,67.9,66.1,96,72,47,30.12,29.99,6,1,7,0.00
2013-6-2,88.4,78.5,69.0,70.9,67.9,65.9,92,71,51,30.03,29.88,5,1,7,0.00
2013-6-3,85.3,74.3,67.2,74.6,71.0,66.6,98,90,69,29.93,29.80,4,0,6,0.50
2013-6-4,80.0,70.8,64.9,67.5,64.5,62.4,99,82,59,30.08,29.90,11,0,13,0.01
2013-6-5,85.6,72.5,62.2,63.6,61.1,56.3,96,70,42,30.13,30.00,4,0,6,0.00
2013-6-6,74.6,70.2,66.0,72.6,66.9,58.9,98,90,71,30.03,29.81,5,0,6,0.81
2013-6-7,76.3,71.0,68.5,75.7,70.6,68.2,100,99,95,29.83,29.41,12,1,15,3.02
2013-6-8,85.5,74.1,66.8,73.2,69.7,65.2,100,87,63,30.07,29.79,6,0,7,0.03
2013-6-9,91.3,76.9,67.3,75.2,70.8,66.7,99,83,56,30.14,30.03,4,0,5,0.21
2013-6-10,82.7,74.5,71.0,77.0,72.7,70.1,99,94,80,30.08,29.87,8,1,9,0.39
2013-6-11,89.8,77.4,70.0,71.3,68.7,65.9,95,77,48,29.93,29.86,6,1,8,0.00
2013-6-12,72.6,70.9,67.7,67.4,66.7,65.1,92,87,83,29.92,29.89,1,0,2,0.00
2013-6-13,98.3,76.6,69.0,77.5,70.1,63.4,96,83,44,29.83,29.55,8,1,15,0.13
2013-6-14,82.5,71.1,62.1,67.6,60.7,58.3,93,71,47,29.99,29.69,12,1,14,0.00
2013-6-15,88.9,72.7,59.5,66.2,61.8,56.8,93,71,44,30.10,29.99,4,0,5,0.00
2013-6-16,89.5,77.3,65.7,71.3,64.8,55.3,81,66,52,30.10,29.97,6,1,8,0.00
2013-6-17,88.3,78.2,71.7,74.5,69.7,65.3,89,76,62,30.01,29.90,4,1,5,0.00
2013-6-18,84.2,75.0,70.0,74.5,71.3,68.4,98,89,72,29.94,29.71,6,0,8,0.21
2013-6-19,81.3,72.6,65.8,69.1,66.9,64.0,99,83,60,30.10,29.84,12,1,12,0.00
2013-6-20,85.0,72.7,63.4,65.6,62.7,54.8,97,73,49,30.23,30.10,8,1,8,0.00
2013-6-21,86.2,72.4,57.4,68.1,59.9,53.2,93,67,38,30.24,30.16,10,1,10,0.00
2013-6-22,82.3,72.9,68.9,72.5,69.6,67.4,98,90,71,30.19,30.09,9,1,9,0.06
2013-6-23,88.3,76.3,67.9,76.3,71.8,67.3,100,87,64,30.19,30.10,3,0,3,0.01
2013-6-24,88.5,78.5,72.2,77.5,73.4,70.4,97,85,67,30.18,30.06,4,0,4,0.00
2013-6-25,91.5,76.4,71.0,80.6,72.4,69.1,99,88,62,30.11,29.98,12,1,12,1.09
2013-6-26,95.0,78.1,68.8,77.8,72.1,67.3,98,84,52,30.01,29.85,6,1,7,0.50
2013-6-27,92.5,77.1,67.9,77.5,72.3,67.1,98,87,59,29.89,29.68,5,1,5,0.00
2013-6-28,95.4,82.8,71.1,77.0,73.2,69.1,98,76,52,29.72,29.53,7,1,12,1.16
2013-6-29,88.3,76.5,68.6,76.3,72.4,68.3,100,88,65,29.71,29.58,4,0,6,0.66
2013-6-30,88.2,76.4,70.9,77.1,73.3,69.8,98,91,69,29.84,29.69,5,1,6,0.43
2013-7-1,83.2,75.4,70.1,76.3,72.8,69.8,100,92,77,29.97,29.81,6,1,6,1.17
2013-7-2,77.8,73.4,71.1,74.3,72.5,70.2,99,97,88,30.17,29.97,5,0,6,1.08
2013-7-3,88.0,76.9,72.9,77.8,74.8,72.3,99,94,69,30.22,30.14,5,1,6,0.53
2013-7-4,92.1,79.8,72.8,76.8,73.7,70.6,99,83,51,30.26,30.15,4,1,5,0.00
2013-7-5,92.7,80.7,72.3,77.5,74.0,71.4,99,82,56,30.25,30.13,4,0,4,0.00
2013-7-6,91.7,80.2,73.3,78.2,73.9,70.7,97,82,58,30.23,30.09,3,0,5,0.00
2013-7-7,91.1,79.7,69.7,76.8,73.1,68.8,99,81,61,30.17,30.03,5,0,5,0.00
2013-7-8,92.2,79.6,71.5,78.9,74.3,70.6,98,85,59,30.14,30.05,5,0,5,0.12
2013-7-9,90.7,77.5,71.3,79.5,74.4,70.6,99,91,66,30.13,30.04,5,0,5,0.04
2013-7-10,89.8,79.2,73.5,78.6,74.7,70.7,97,87,68,30.08,29.92,7,1,7,0.00
2013-7-11,85.6,74.8,72.3,76.4,73.0,71.0,99,94,74,29.96,29.86,3,0,6,0.53
2013-7-12,76.7,73.0,70.9,72.9,71.4,69.7,100,95,87,30.01,29.84,8,0,8,0.08
2013-7-13,80.2,73.7,70.3,78.1,72.7,69.4,99,97,90,30.16,29.99,6,0,7,0.26
2013-7-14,90.0,78.2,70.4,77.1,73.7,70.1,100,87,62,30.28,30.16,4,0,5,0.00
2013-7-15,93.5,79.4,69.7,76.8,72.7,69.4,100,82,53,30.29,30.22,4,0,5,0.01
2013-7-16,99.3,81.4,70.4,81.1,74.2,69.9,100,82,47,30.25,30.14,6,0,7,0.07
2013-7-17,95.7,83.5,74.4,78.7,75.5,71.6,99,79,52,30.19,30.07,8,0,8,0.00
2013-7-18,95.7,83.3,74.6,80.4,76.6,73.6,99,81,56,30.12,30.00,3,0,4,0.00
2013-7-19,92.9,82.9,75.8,79.6,75.9,72.4,96,81,61,30.07,29.94,5,1,6,0.00
2013-7-20,90.6,81.1,75.4,78.0,75.0,72.8,92,82,64,30.00,29.89,5,1,6,0.00
2013-7-21,90.5,78.4,73.6,77.7,74.0,71.3,98,87,65,29.97,29.87,4,0,5,0.07
2013-7-22,90.8,79.5,71.9,78.2,74.5,71.6,100,86,64,29.92,29.79,4,0,5,0.00
2013-7-23,92.8,81.8,75.5,76.8,74.0,72.7,92,79,56,29.82,29.68,5,1,5,0.00
2013-7-24,97.0,81.2,71.1,76.0,72.4,68.2,97,76,50,29.82,29.69,8,0,9,0.00
2013-7-25,79.8,73.8,69.3,72.0,69.4,65.6,97,86,73,30.01,29.78,10,1,11,0.02
2013-7-26,88.3,74.1,62.5,68.8,65.1,61.7,98,76,50,30.09,29.99,6,0,7,0.00
2013-7-27,88.5,75.0,66.9,72.3,69.3,65.8,99,84,55,30.04,29.91,7,0,7,0.10
2013-7-28,91.5,78.0,69.8,75.4,71.5,69.5,99,83,55,29.98,29.89,4,0,4,0.00
2013-7-29,89.9,77.6,70.0,73.7,69.8,65.6,98,78,52,30.13,29.96,8,1,8,0.11
2013-7-30,89.0,76.3,64.1,71.4,67.1,61.1,91,75,50,30.20,30.10,6,0,6,0.00
2013-7-31,84.6,75.5,70.7,75.1,71.8,68.4,98,89,68,30.12,29.98,6,0,7,0.24
2013-8-1,85.8,74.7,70.5,76.4,72.4,69.5,99,93,70,30.00,29.82,7,0,8,1.24
2013-8-2,94.3,77.6,67.6,75.2,71.3,67.3,100,83,51,29.99,29.88,5,0,6,0.15
2013-8-3,89.9,78.4,71.5,78.4,74.4,70.8,99,89,64,29.99,29.87,4,0,5,0.36
2013-8-4,85.5,74.9,67.3,73.0,68.5,61.4,100,82,51,30.00,29.85,11,1,14,0.00
2013-8-5,84.3,73.6,63.6,68.0,64.5,59.1,97,75,50,30.08,29.98,5,0,5,0.00
2013-8-6,85.2,74.8,67.5,71.2,68.1,63.7,98,80,58,30.04,29.97,4,0,5,0.07
2013-8-7,89.9,77.5,67.9,72.9,69.9,66.4,97,79,53,30.08,29.99,4,0,4,0.00
2013-8-8,91.5,80.1,70.9,74.7,72.5,69.7,98,79,55,30.04,29.96,4,0,4,0.00
2013-8-9,94.0,82.9,75.5,78.4,75.4,73.3,95,79,59,30.02,29.94,5,1,6,0.00
2013-8-10,96.5,81.5,74.0,80.6,75.9,72.9,98,85,56,30.07,29.96,13,0,13,0.10
2013-8-11,96.9,80.3,72.2,81.0,75.2,71.9,100,86,52,30.08,29.97,6,0,6,0.03
2013-8-12,97.0,82.1,73.9,77.1,74.6,72.4,100,80,48,30.01,29.90,9,0,9,0.01
2013-8-13,91.8,78.6,72.0,79.7,75.2,71.4,99,90,66,29.95,29.74,8,0,11,1.07
2013-8-14,75.4,70.7,62.8,73.9,66.9,58.7,95,88,70,30.07,29.79,4,0,10,0.00
2013-8-15,79.8,67.7,61.0,62.4,59.2,55.8,92,76,50,30.15,30.05,8,1,9,0.00
2013-8-16,72.2,66.5,60.5,63.4,60.9,57.3,93,83,69,30.16,30.08,8,0,8,0.00
2013-8-17,71.8,68.1,64.5,71.2,66.0,61.1,99,93,86,30.16,30.09,10,1,10,0.38
2013-8-18,83.7,73.3,67.8,73.2,69.8,66.0,100,90,68,30.18,30.09,7,1,7,0.00
2013-8-19,74.5,69.6,66.4,72.0,68.4,65.4,99,96,89,30.17,30.07,5,0,6,0.75
2013-8-20,83.6,74.7,67.8,75.2,71.6,67.5,100,91,74,30.17,30.08,5,0,5,0.00
2013-8-21,88.2,76.1,70.5,78.2,73.3,68.6,99,92,71,30.20,30.08,5,0,12,0.92
2013-8-22,92.8,78.4,69.3,76.3,72.5,69.0,100,84,53,30.12,29.96,5,0,7,0.00
2013-8-23,91.0,77.8,69.3,75.9,72.2,67.8,99,84,58,30.03,29.89,3,0,11,0.00
2013-8-24,83.0,72.5,64.6,67.4,63.3,60.9,95,75,50,30.27,30.04,7,2,13,0.00
2013-8-25,81.0,71.1,62.1,63.9,60.3,56.9,96,71,49,30.38,30.26,10,1,13,0.00
2013-8-26,77.4,62.6,56.3,64.2,58.9,55.4,99,89,60,30.31,30.09,0,0,0,0.00
2013-8-27,90.6,75.8,64.1,74.7,67.3,58.8,91,76,53,30.10,29.93,8,0,8,0.00
2013-8-28,83.6,77.1,70.6,76.9,73.7,69.8,99,90,75,29.95,29.84,3,0,4,0.00
2013-8-29,87.7,79.2,72.7,75.8,73.5,70.2,92,83,65,29.99,29.80,10,1,12,0.00
2013-8-30,89.3,75.4,66.5,71.2,68.2,65.0,98,81,47,30.04,29.91,4,0,5,0.00
2013-8-31,90.5,77.6,67.8,73.8,70.9,67.0,99,81,57,29.95,29.84,5,0,5,0.00
2013-9-1,92.1,77.7,71.4,81.1,73.7,70.5,99,88,63,29.87,29.75,10,0,10,1.01
2013-9-2,89.9,77.6,70.1,77.9,73.7,69.8,100,89,64,29.86,29.77,3,0,4,0.00
2013-9-3,92.0,78.0,71.7,79.6,74.3,70.7,99,89,59,29.91,29.77,8,0,8,0.00
2013-9-4,87.5,75.4,68.8,73.3,70.3,66.6,99,85,62,30.06,29.91,10,1,10,0.00
2013-9-5,91.1,75.3,66.8,71.7,66.8,61.8,99,78,42,30.07,29.99,8,0,8,0.00
2013-9-6,83.7,72.3,64.9,66.9,63.0,57.0,91,74,52,30.15,30.05,11,1,11,0.00
2013-9-7,86.0,70.4,58.8,67.8,63.1,57.7,98,80,48,30.12,29.95,1,0,1,0.00
2013-9-8,90.0,73.7,62.7,71.3,65.6,61.5,98,79,41,29.97,29.88,1,0,1,0.00
2013-9-9,89.0,75.7,66.2,72.5,69.3,65.6,99,82,55,30.13,29.96,0,0,1,0.00
2013-9-10,93.8,78.0,68.0,73.7,70.2,67.4,99,79,48,30.21,30.11,0,0,0,0.00
2013-9-11,91.9,75.9,67.2,74.0,69.3,66.2,98,82,52,30.18,30.05,0,0,0,0.00
2013-9-12,92.5,79.5,71.3,75.8,72.3,68.0,93,80,56,30.05,29.77,1,0,1,0.00
2013-9-13,86.7,74.7,65.9,71.1,65.7,58.3,95,75,51,29.86,29.72,1,0,1,0.00
2013-9-14,76.5,66.2,59.3,59.2,53.8,47.7,84,65,45,30.12,29.86,14,2,14,0.00
2013-9-15,82.7,66.5,53.7,63.6,57.9,52.1,96,76,47,30.23,30.10,5,0,5,0.00
2013-9-16,86.8,74.3,65.4,72.2,66.1,61.1,97,78,48,30.17,30.00,11,1,11,0.00
2013-9-17,77.3,66.7,58.6,61.5,55.8,51.8,86,69,45,30.30,30.17,6,2,16,0.00
2013-9-18,75.0,60.7,51.8,56.1,52.5,49.8,93,76,49,30.30,30.17,9,1,9,0.00
2013-9-19,78.3,65.5,55.0,63.6,58.4,52.9,95,79,55,30.18,30.07,1,0,5,0.00
2013-9-20,70.8,67.5,62.2,66.7,64.8,60.3,98,91,84,30.08,29.95,1,0,3,0.01
2013-9-21,76.3,70.1,65.4,71.4,67.9,64.5,98,93,83,29.95,29.71,5,0,5,0.02
2013-9-22,77.2,68.0,62.2,68.4,62.0,56.9,98,83,57,29.87,29.69,14,2,17,0.01
2013-9-23,73.0,62.6,54.0,57.5,54.5,50.7,94,76,54,30.06,29.87,12,1,12,0.00
2013-9-24,76.7,62.2,53.1,61.6,57.0,52.0,97,84,58,30.09,29.94,6,0,6,0.00
2013-9-25,76.0,63.5,53.4,63.6,59.3,52.6,99,87,63,29.95,29.85,5,0,5,0.00
2013-9-26,77.3,66.6,58.0,62.0,58.6,50.8,96,77,45,30.02,29.85,12,1,12,0.00
2013-9-27,73.3,63.2,55.1,61.0,57.2,54.2,98,82,59,30.17,30.02,14,1,14,0.00
2013-9-28,72.9,62.1,52.8,59.0,55.8,51.7,97,81,58,30.25,30.14,14,1,16,0.00
2013-9-29,75.2,61.9,53.1,58.9,55.9,52.3,98,82,52,30.16,30.01,11,1,11,0.00
2013-9-30,77.8,62.4,53.8,61.8,56.7,53.0,99,84,50,30.09,29.98,9,0,9,0.00
2013-10-1,84.2,65.9,52.8,64.8,58.9,51.7,99,81,49,30.11,30.00,4,0,4,0.00
2013-10-2,85.5,69.9,60.2,65.6,61.9,58.6,96,78,46,30.11,30.01,8,0,8,0.00
2013-10-3,85.3,70.8,60.1,68.4,63.7,59.1,98,80,54,30.11,30.03,3,0,3,0.00
2013-10-4,87.7,73.1,63.6,69.1,65.8,62.2,97,79,50,30.11,30.02,4,0,4,0.00
2013-10-5,90.5,74.1,62.6,70.6,66.1,61.5,98,78,47,30.09,30.00,3,0,3,0.00
2013-10-6,83.2,72.9,64.5,72.5,68.9,63.6,99,88,69,30.05,29.92,5,0,6,0.00
2013-10-7,75.6,70.7,64.4,72.8,69.4,60.5,99,96,87,29.96,29.83,10,1,10,0.00
2013-10-8,65.0,60.0,57.2,60.7,51.6,47.4,88,74,64,30.18,29.95,17,3,17,0.00
2013-10-9,61.7,58.0,54.5,56.7,53.8,51.0,97,86,77,30.17,30.06,18,3,18,0.00
2013-10-10,59.8,56.3,53.4,58.9,55.3,52.4,98,96,95,30.06,29.92,13,2,14,0.00
2013-10-11,65.6,61.7,58.5,62.4,60.0,57.9,98,94,87,29.95,29.89,8,1,8,0.00
2013-10-12,68.3,64.0,61.1,65.6,62.5,59.9,97,95,90,30.06,29.93,8,0,8,0.00
2013-10-13,66.9,63.9,61.7,64.7,62.7,61.1,98,96,91,30.18,30.05,11,2,11,0.02
2013-10-14,65.3,62.1,57.1,63.0,60.6,56.3,99,95,88,30.22,30.16,14,2,14,0.00
2013-10-15,57.1,54.7,52.6,56.3,54.1,52.0,99,98,97,30.18,30.13,5,1,5,0.00
2013-10-21,55.8,54.8,54.6,50.3,49.9,49.4,84,83,81,30.04,30.02,0,0,0,0.00
2013-10-22,60.1,58.5,56.7,58.1,57.3,55.9,97,95,93,29.84,29.80,1,0,0,0.00
2013-10-23,66.4,58.1,47.5,58.4,49.9,36.1,99,77,41,29.99,29.67,8,1,0,0.00
2013-10-24,59.6,47.2,37.4,40.1,36.1,33.7,88,67,41,30.18,29.99,4,0,0,0.00
2013-10-25,56.7,45.5,37.5,38.7,34.1,29.8,84,66,39,30.36,30.18,9,1,0,0.00
2013-10-26,59.3,44.4,31.0,40.4,34.0,29.0,94,70,37,30.36,30.07,5,0,0,0.00
2013-10-27,67.7,53.7,42.6,47.2,42.4,37.3,88,67,41,30.12,30.03,7,0,0,0.00
2013-10-28,69.0,55.7,45.2,57.1,49.8,43.2,95,82,59,30.25,30.12,2,0,0,0.00
2013-11-1,73.3,69.0,66.0,67.4,66.1,64.9,98,91,78,29.78,29.65,5,1,0,0.00
2013-11-3,45.9,45.7,44.9,40.4,40.3,39.7,82,81,81,30.13,30.12,1,0,0,0.00
2013-11-12,38.5,36.8,35.3,32.9,25.2,18.1,90,64,49,30.42,30.31,10,2,0,0.02
2013-11-13,45.4,34.5,27.7,24.4,20.2,16.6,80,57,34,30.54,30.42,12,1,0,0.00
2013-11-14,58.0,40.5,26.9,30.9,25.8,22.4,88,60,27,30.48,30.33,5,0,0,0.00
2013-11-15,62.7,48.3,33.0,49.6,38.4,25.8,92,70,45,30.37,30.21,3,0,0,0.01
2013-11-16,67.5,56.3,50.9,59.5,53.6,48.9,97,91,76,30.27,30.20,6,0,0,0.00
2013-11-17,70.6,61.5,53.6,66.0,58.7,52.8,99,91,73,30.22,29.88,5,0,0,0.00
2013-11-18,69.1,63.1,54.0,67.3,54.8,33.6,98,77,42,29.94,29.79,10,1,0,0.00
2013-11-19,56.8,48.7,42.3,35.0,30.9,28.6,63,51,37,30.32,29.93,14,1,0,0.00
2013-11-20,51.2,44.2,37.6,39.8,33.4,28.5,83,66,54,30.45,30.32,12,2,0,0.01
2013-11-21,60.5,49.8,41.8,50.5,43.9,37.8,90,80,68,30.51,30.38,7,1,0,0.00
2013-11-22,70.2,59.1,46.6,61.2,54.4,44.6,96,85,72,30.39,30.07,5,0,0,0.00
2013-11-23,61.7,55.2,42.0,60.6,45.0,23.3,98,71,40,30.16,30.02,9,1,0,0.00
2013-11-24,42.0,33.1,26.0,25.1,12.3,5.1,60,43,26,30.55,30.16,12,1,0,0.00
2013-11-25,36.4,26.1,21.4,15.4,12.2,8.4,73,56,36,30.61,30.40,5,0,0,0.00
2013-11-26,66.2,44.7,36.5,65.6,33.7,14.5,99,67,40,30.40,29.55,8,2,0,0.02
2013-11-27,66.2,40.7,30.0,65.5,37.7,20.0,98,89,65,30.16,29.49,12,1,0,0.02
2013-11-28,44.2,32.4,24.5,26.4,21.7,17.3,87,66,39,30.50,30.16,10,1,0,0.00
2013-11-29,51.7,36.9,25.8,28.7,26.1,23.5,92,67,40,30.65,30.48,12,1,0,0.00
2013-11-30,50.1,36.9,28.6,36.0,29.4,24.0,87,75,57,30.64,30.37,8,1,0,0.00
2013-12-1,60.4,43.0,29.4,40.1,33.9,27.6,94,73,38,30.37,30.02,3,0,0,0.00
2013-12-2,57.9,46.6,39.4,44.6,40.6,36.7,92,81,49,30.02,29.82,4,0,0,0.00
2013-12-3,57.5,47.7,35.7,47.9,41.9,34.4,97,81,63,29.99,29.86,5,1,0,0.00
2013-12-4,63.9,56.4,51.7,58.0,52.9,47.6,97,88,81,30.09,29.98,3,0,0,0.00
2013-12-5,67.6,61.6,54.1,64.3,60.0,53.2,99,95,86,30.13,30.02,5,1,0,0.00
2013-12-6,78.0,70.4,65.2,66.2,64.3,62.5,95,82,66,30.07,29.95,13,2,0,0.00
2013-12-7,69.8,49.1,41.9,65.5,44.4,31.8,95,84,68,30.45,29.96,14,3,0,0.02
2013-12-8,41.9,35.4,32.7,33.4,31.9,29.3,96,88,67,30.47,30.29,16,2,0,0.01
2013-12-9,46.0,40.0,34.3,45.5,39.2,33.2,98,97,96,30.29,30.06,4,0,0,0.00
2013-12-10,46.8,42.6,29.7,46.3,41.2,27.3,98,94,83,30.33,29.91,7,0,0,0.00
2013-12-11,49.5,36.2,27.0,32.7,27.2,22.6,95,72,38,30.46,30.29,6,0,0,0.00
2013-12-12,45.9,35.6,27.8,29.9,23.5,14.2,89,63,29,30.43,30.28,13,1,0,0.00
2013-12-13,51.2,37.0,25.8,32.1,23.9,19.5,84,62,31,30.41,30.28,8,0,0,0.00
2013-12-14,47.1,41.2,38.7,41.3,35.9,29.3,97,82,54,30.31,29.77,9,1,0,0.00
2013-12-15,55.2,43.3,35.1,44.1,37.7,29.4,97,82,53,30.08,29.69,11,1,0,0.00
2013-12-16,55.0,40.8,29.6,37.0,32.7,27.3,93,75,46,30.19,30.07,5,0,0,0.00
2013-12-17,61.9,48.1,34.0,40.9,37.0,31.9,94,68,41,30.13,29.87,15,1,0,0.00
2013-12-18,50.6,39.8,32.0,39.1,26.8,20.7,88,62,33,30.29,30.02,6,0,0,0.00
2013-12-19,61.3,45.5,30.1,32.3,28.5,24.8,87,55,28,30.34,30.22,6,1,0,0.00
2013-12-20,66.5,55.1,42.2,55.7,46.5,32.7,90,73,53,30.25,30.11,8,1,0,0.00
2013-12-21,72.8,61.4,49.2,66.5,56.8,47.4,97,85,70,30.15,30.03,15,1,0,0.00
2013-12-22,78.3,70.6,64.2,68.0,65.7,62.6,97,85,66,30.10,30.00,15,3,0,0.01
2013-12-23,66.7,60.5,46.7,66.2,59.3,42.4,99,96,85,30.13,29.98,11,1,0,0.06
2013-12-24,47.1,40.8,29.4,42.4,30.8,15.3,94,68,50,30.46,30.10,10,2,0,0.00
2013-12-25,39.1,29.6,23.6,21.3,15.6,11.7,80,57,35,30.56,30.41,10,1,0,0.00
2013-12-26,50.8,37.0,26.0,35.2,29.1,20.2,93,74,45,30.41,30.25,3,0,0,0.02
2013-12-27,53.1,38.7,29.0,28.9,25.1,22.1,80,60,31,30.48,30.37,7,0,0,0.00
2013-12-28,60.1,42.9,28.9,38.7,30.5,25.6,89,65,31,30.41,30.16,4,0,0,0.00
2013-12-29,63.7,49.9,43.9,63.7,47.6,35.1,100,92,61,30.17,29.67,6,1,0,0.06
2013-12-30,54.6,45.9,37.6,46.0,41.0,36.8,99,84,64,30.14,29.92,2,0,0,0.00
2013-12-31,51.4,42.2,34.5,37.1,32.1,25.4,92,69,38,30.36,30.11,7,1,0,0.00
2014-1-1,50.9,40.0,31.5,34.0,28.6,24.1,88,66,36,30.44,30.15,7,1,0,0.00
2014-1-2,48.4,43.9,39.2,46.0,39.2,32.4,97,84,71,30.16,29.56,7,0,0,0.02